Location: De Platvoet
(52.2667°N, 6.1667°E)
Time: 06:55:19
(UTC+00:00)

Cosmos 1937 Rocket - Pass Details

Date: 15 May 2026
Orbit: 743 x 774 km, 74.0° (Epoch: 5 June)

Event Time Altitude Azimuth Distance (km) Brightness Sun altitude
Rises 22:19:59 0° 335° (NNW) 3,209 8.4 -17.0°
Reaches altitude 10° 22:22:22 10° 337° (NNW) 2,276 7.3 -17.1°
Maximum altitude 22:27:32 74° 63° (ENE) 778 3.5 -17.3°
Enters shadow 22:30:09 29° 143° (SE) 1,336 4.2 -17.4°
